Regional Weather Roundup
Issued by NWS

Home | Current Version | Previous Version | Graphics & Text | Print | Product List | Glossary Off
Versions: 1 2 3 4 5 6 7 8 9 10 11 12 13 14 15 16 17 18 19 20 21 22 23 24 25 26 27 28 29 30 31 32 33 34 35 36 37 38 39 40 41 42 43 44 45 46 47 48 49 50

000
ASUS43 KMPX 251210
RWRMN
WEATHER ROUNDUP FOR MINNESOTA
NATIONAL WEATHER SERVICE TWIN CITIES/CHANHASSEN MN
700 AM CDT MON JUL 25 2016


NOTE: "FAIR" INDICATES FEW OR NO CLOUDS BELOW 12,000 FEET WITH NO
SIGNIFICANT WEATHER AND/OR OBSTRUCTIONS TO VISIBILITY. N/A MEANS
CURRENT SKY AND/OR WEATHER CONDITIONS ARE NOT AVAILABLE.

MNZ060>063-068>070-251300-
   Twin Cities Metro

CITY           SKY/WX    TMP DP  RH WIND       PRES   REMARKS
TWIN CITIES    SUNNY     68  62  81 SW5       30.04R
6HR MIN TEMP:  67; 6HR MAX TEMP:  73;

ST PAUL        SUNNY     68  62  81 CALM      30.04R
CRYSTAL        SUNNY     67  59  75 NW3       30.03R
BLAINE         SUNNY     66  63  88 W6        30.03R
LAKEVILLE      SUNNY     64  63  94 CALM      30.05R
EDEN PRAIRIE   SUNNY     66  62  87 SW6       30.04R
6HR MIN TEMP:  64; 6HR MAX TEMP:  69;

LAKEVILLE      SUNNY     64  63  94 CALM      30.05R
SOUTH ST PAUL  SUNNY     67  62  83 CALM      30.04R
LAKE ELMO      FAIR      63  61  94 CALM      30.04R
$$
MNZ001>005-007-008-013>017-022>024-027-028-251300-
   Northwest Minnesota

CITY           SKY/WX    TMP DP  RH WIND       PRES   REMARKS
BEMIDJI        CLEAR     61  59  94 W5        30.03R
HALLOCK        CLEAR     59  57  94 CALM      29.99S
ROSEAU         CLEAR     63  57  82 SW5       29.99S
WARROAD        SUNNY     61  57  88 SW6       30.00R
THIEF RVR FALL CLEAR     59  58  96 SW3       30.03R
CROOKSTON      CLEAR     61  57  88 CALM      30.02S
FOSSTON        CLEAR     57  55  94 S3        30.05R
DETROIT LAKES  CLEAR     64  57  77 CALM      30.06R
MOORHEAD       CLEAR     61  57  88 CALM      30.04R
PARK RAPIDS    CLEAR     61  58  90 CALM      30.04R
MAHNOMEN       FAIR      58  56  94 CALM      30.04R
$$
MNZ006-009>011-018-025>026-251300-
   North Central Minnesota

CITY           SKY/WX    TMP DP  RH WIND       PRES   REMARKS
BAUDETTE       SUNNY     61  59  93 W3        29.99R
FLAG ISLAND    SUNNY     64  59  82 W9        29.96R
INTL FALLS     SUNNY     61  59  93 W3        29.98R
6HR MIN TEMP:  57; 6HR MAX TEMP:  61;

WASKISH        SUNNY     68  63  83 W5        30.01R
BIG FORK       SUNNY     59  57  94 CALM      30.01S
LONGVILLE      SUNNY     61  59  94 CALM      30.03R
GRAND RAPIDS   SUNNY     61  60  97 CALM      30.03R
ORR            SUNNY     57  55  94 CALM      29.97R
COOK           SUNNY     59  57  94 CALM      30.00R
WALKER         FAIR      59  57  94 NW3       30.03R
$$
MNZ012-019>021-037-251300-
   Northeast Minnesota

CITY           SKY/WX    TMP DP  RH WIND       PRES   REMARKS
DULUTH         SUNNY     64  61  90 NW7       29.99R
6HR MIN TEMP:  61; 6HR MAX TEMP:  66;

ELY            SUNNY     61  57  88 SW3       29.99R
HIBBING        SUNNY     59  57  93 SW3       30.00R
EVELETH        SUNNY     63  60  91 W3        30.01R
DULUTH HARBOR  SUNNY     68  63  83 SW7       29.98S
TWO HARBORS    MOSUNNY   64  61  88 CALM      29.96R
SILVER BAY     SUNNY     64  59  82 CALM      29.95R
GRAND MARAIS     N/A     69  56  62 MISG      29.88R
G MARAIS ARPRT SUNNY     63  54  72 W10G18    29.94R
$$
MNZ029>031-032-039>041-046>048-054>057-064-251300-
   West Central Minnesota

CITY           SKY/WX    TMP DP  RH WIND       PRES   REMARKS
FERGUS FALLS   CLEAR     61  61 100 SW3       30.07R
MORRIS         CLEAR     61  61 100 CALM      30.06R
ALEXANDRIA     CLEAR     63  60  90 W3        30.08R
ELBOW LAKE     FAIR      60  59  96 CALM      30.06R
WADENA         CLEAR     61  59  94 W6        30.04S
GLENWOOD       CLEAR     63  61  94 W6        30.08R
APPLETON       CLEAR     63  61  94 CALM      30.06R
BENSON         CLEAR     59  57  94 CALM      30.07R
ORTONVILLE     CLEAR     63  59  88 CALM      30.06R
MADISON        CLEAR     63  59  88 CALM      30.08R
WILLMAR        FAIR      63  61  94 CALM      30.09R
$$
MNZ033>034-036-042>043-049>051-058-059-251300-
   Central Minnesota

CITY           SKY/WX    TMP DP  RH WIND       PRES   REMARKS
ST CLOUD       CLEAR     62  61  96 CALM      30.05R
6HR MIN TEMP:  58; 6HR MAX TEMP:  66;

SAUK CENTRE    FAIR      59  58  96 SW3       30.07R
PAYNESVILLE    CLEAR     59  60 100 W5        30.07R
AITKIN         SUNNY     66  57  72 CALM      30.02R
PINE RIVER     SUNNY     61  59  94 CALM      30.07R
BRAINERD       SUNNY     63  60  90 CALM      30.04R
STAPLES        CLEAR     61  59  94 CALM      30.04S
LONG PRAIRIE   FAIR      61  59  94 CALM      30.07R
LITTLE FALLS   CLEAR     57  55  94 CALM      30.05R
LITCHFIELD     CLEAR     66  64  94 CALM      30.07R
BUFFALO        CLEAR     65  61  85 CALM      30.06R
MAPLE LAKE     CLEAR     65  62  89 CALM      30.06R
HUTCHINSON     CLEAR     62  62  97 CALM      30.07R
$$
MNZ037-044-045-052-053-251300-
   East Central Minnesota

CITY           SKY/WX    TMP DP  RH WIND       PRES   REMARKS
PRINCETON      SUNNY     63  61  94 CALM      30.04R
MORA           SUNNY     63  59  88 W3        30.05R
CAMBRIDGE      SUNNY     66  55  68 CALM      30.02R
RUSH CITY      MOSUNNY   63  59  87 W5        30.03R
MOOSE LAKE     SUNNY     63  59  88 CALM      30.00R
HINCKLEY       FAIR      63  63 100 CALM      30.02R
CLOQUET        SUNNY     63  59  88 W7        30.00S
MCGREGOR       SUNNY     63  61  94 W6        30.03R
$$
MNZ071>073-080-081-089-090-097-098-251300-
   Southwest Minnesota

CITY           SKY/WX    TMP DP  RH WIND       PRES   REMARKS
MONTEVIDEO     CLEAR     64  61  88 CALM      30.09R
GRANITE FALLS  CLEAR     63  61  93 W6        30.09R
CANBY          CLEAR     66  60  80 CALM      30.09R
MARSHALL       CLEAR     63  59  87 SW5       30.09R
REDWOOD FALLS  CLEAR     65  58  78 NW7       30.07R
OLIVIA         CLEAR     59  55  88 CALM      30.07R
PIPESTONE      CLEAR     59  55  88 SE2       30.11R
WINDOM         CLEAR     63  59  88 CALM      30.10R
WORTHINGTON    CLEAR     61  58  90 W5        30.12R
JACKSON        CLEAR     63  59  88 CALM      30.11R
TRACY          CLEAR     70  60  70 W5        30.09R
SLAYTON        CLEAR     61  58  90 W3        30.12R
$$
MNZ065>067-074>077-082>085-091>093-251300-
   South Central Minnesota

CITY           SKY/WX    TMP DP  RH WIND       PRES   REMARKS
MANKATO        CLEAR     64  59  82 SW5       30.07R
NEW ULM        CLEAR     61  61 100 W5        30.07R
ST JAMES       CLEAR     59  55  88 CALM      30.09R
FAIRMONT       CLEAR     63  55  77 SW3       30.08R
GLENCOE        CLEAR     64  62  94 W3        30.06R
FARIBAULT      SUNNY     64  64 100 CALM      30.06S
OWATONNA       SUNNY     63  61  94 CALM      30.07R
WASECA         CLEAR     59  59 100 CALM      30.09R FOG
ALBERT LEA     CLEAR     64  63  94 SW3       30.08R
$$
MNZ078>079-086>088-094>096-251300-
   Southeast Minnesota

CITY           SKY/WX    TMP DP  RH WIND       PRES   REMARKS
ROCHESTER      SUNNY     64  62  93 W6        30.07R
6HR MIN TEMP:  62; 6HR MAX TEMP:  65;

RED WING       SUNNY     64  63  94 CALM      30.03R
STANTON        SUNNY     63  61  94 S3        30.04R
DODGE CENTER   SUNNY     64  63  94 W5        30.07R
WINONA         SUNNY     70  64  83 CALM      30.03S
AUSTIN         SUNNY     61  59  94 CALM      30.08R
PRESTON        SUNNY     64  60  87 W6        30.07S
$$
ABBREVIATIONS USED IN REMARKS
   TC - TEMPERATURES IN CELSIUS
  WCI - WIND CHILL INDEX
   HX - HEAT INDEX
  VSB - VISIBILITY
$$



USA.gov is the U.S. government's official web portal to all federal, state and local government web resources and services.